Regional Weather Roundup
Issued by NWS

Home | Current Version | Previous Version | Text Only | Print | Product List | Glossary On
Versions: 1 2 3 4 5 6 7 8 9 10 11 12 13 14 15 16 17 18 19 20 21 22 23 24 25 26 27 28 29 30 31 32 33 34 35 36 37 38 39 40 41 42 43 44 45 46 47 48 49 50
000
ASUS43 KMPX 012010
RWRMN
WEATHER ROUNDUP FOR MINNESOTA
NATIONAL WEATHER SERVICE TWIN CITIES/CHANHASSEN MN
200 PM CST MON MAR 01 2021


NOTE: "FAIR" INDICATES FEW OR NO CLOUDS BELOW 12,000 FEET WITH NO
SIGNIFICANT WEATHER AND/OR OBSTRUCTIONS TO VISIBILITY. N/A MEANS
CURRENT SKY AND/OR WEATHER CONDITIONS ARE NOT AVAILABLE.

MNZ060>063-068>070-012100-
   Twin Cities Metro

CITY           SKY/WX    TMP DP  RH WIND       PRES   REMARKS
TWIN CITIES    SUNNY     22   0  38 VRB5      30.39S WCI  16
ST PAUL        SUNNY     23   0  36 CALM      30.41S
CRYSTAL        SUNNY     21  -1  38 VRB3      30.38S
BLAINE         SUNNY     19  -6  32 N6        30.38F WCI  11
LAKEVILLE      SUNNY     21  -2  35 CALM      30.38S
EDEN PRAIRIE   SUNNY     21   1  41 W7        30.38S WCI  12
SOUTH ST PAUL  SUNNY     22  -3  33 CALM      30.39S
$$
MNZ001>005-007-008-013>017-022>024-027-028-012100-
   Northwest Minnesota

CITY           SKY/WX    TMP DP  RH WIND       PRES   REMARKS
BEMIDJI        SUNNY     14  -6  40 SE3       30.29F
HALLOCK        MOSUNNY   14  -2  48 S16       30.28F WCI  -2
ROSEAU         MOSUNNY   12 -17  26 SW7       30.32F WCI   2
WARROAD        MOSUNNY    9  -6  52 S6        30.31F WCI  -1
THIEF RVR FALL MOSUNNY   13  -2  51 S9        30.33F WCI   1
CROOKSTON      MOSUNNY   14  -4  44 SW15      30.35F WCI  -1
FOSSTON        SUNNY      9  -8  47 S3        30.32F
DETROIT LAKES  SUNNY     14  -9  34 SW8       30.32F WCI   3
MOORHEAD       SUNNY     10  -6  48 S8        30.38F WCI  -1
PARK RAPIDS    SUNNY     14 -10  33 CALM      30.29F
MAHNOMEN       FAIR      11  -2  54 SW9       30.33F WCI  -1
$$
MNZ006-009>011-018-025>026-012100-
   North Central Minnesota

CITY           SKY/WX    TMP DP  RH WIND       PRES   REMARKS
BAUDETTE       MOSUNNY   10 -10  40 CALM      30.30F
FLAG ISLAND    MOSUNNY    1  -9  60 S16       30.30F WCI -18
INTL FALLS     MOSUNNY    9 -12  38 W6        30.30F WCI  -1
WASKISH        MOSUNNY    7  -8  51 W7        30.32F WCI  -5
BIG FORK       SUNNY     14 -15  26 CALM      30.34F
LONGVILLE      SUNNY     12 -13  31 CALM      30.31F
GRAND RAPIDS   SUNNY     12  -7  42 NW5       30.33F WCI   4
CRANE LAKE     SUNNY     10 -17  28 N5        30.32F WCI   2
ORR            SUNNY     10 -15  31 NW3       30.28F
COOK           MOSUNNY   10 -13  34 CALM      30.29F
WALKER         CLEAR     14  -7  39 E6        30.30F WCI   5
$$
MNZ012-019>021-037-012100-
   Northeast Minnesota

CITY           SKY/WX    TMP DP  RH WIND       PRES   REMARKS
DULUTH         SUNNY     14 -10  33 W9        30.29F WCI   2
ELY            MOSUNNY   10 -17  28 W6        30.27F WCI   1
HIBBING        MIX PCPN  12  -7  42 NW7       30.30F WCI   1
EVELETH        SUNNY     13  -8  38 W6        30.31F WCI   3
DULUTH HARBOR  SUNNY     16 -11  29 W5        30.37F WCI   9
TWO HARBORS    SUNNY     16 -11  29 NW5       30.30F WCI   9
SILVER BAY     MOSUNNY   18 -17  21 W3        30.29F
GRAND MARAIS     N/A     19  -9  28 VRB7      30.30F WCI  10
G MARAIS ARPRT MOSUNNY   10 -18  26 NW8       30.18F WCI  -1
$$
MNZ029>031-032-039>041-046>048-054>057-064-012100-
   West Central Minnesota

CITY           SKY/WX    TMP DP  RH WIND       PRES   REMARKS
FERGUS FALLS   SUNNY     10  -2  56 SW6       30.34F WCI   1
WHEATON        PTSUNNY   16   3  57 SE6       30.40F WCI   7
MORRIS         SUNNY     18  -4  38 SW3       30.38F
ALEXANDRIA     SUNNY     16   0  49 SW7       30.34F WCI   6
ELBOW LAKE     FAIR      13   0  58 W3        30.37F
WADENA         SUNNY     12  -8  40 CALM      30.33F
GLENWOOD       SUNNY     18   1  49 S5        30.36F WCI  11
APPLETON       SUNNY     18   3  53 CALM      30.39F
BENSON         SUNNY     16   7  67 W5        30.40F WCI   9
ORTONVILLE     SUNNY     18   5  57 S3        30.37F
MADISON        SUNNY     18   7  62 CALM      30.40F
WILLMAR        FAIR      16   3  57 SW3       30.42F
$$
MNZ033>034-036-042>043-049>051-058-059-012100-
   Central Minnesota

CITY           SKY/WX    TMP DP  RH WIND       PRES   REMARKS
ST CLOUD       SUNNY     17  -8  32 N5        30.38F WCI  10
SAUK CENTRE    CLOUDY    16  -2  46 CALM      30.36F
PAYNESVILLE    SUNNY     16   1  53 CALM      30.38F
AITKIN         SUNNY     16  -9  32 S5        30.35F WCI   9
PINE RIVER     SUNNY     16  -2  45 S5        30.33F WCI   9
BRAINERD       SUNNY     14  -8  37 S3        30.35F
STAPLES        SUNNY     16  -2  45 CALM      30.33F
LONG PRAIRIE   FAIR      19  -2  38 CALM      30.35F
LITTLE FALLS   SUNNY     18  -9  29 CALM      30.37F
CAMP RIPLEY    FAIR      15  -7  36 SE5       30.37F WCI   8
LITCHFIELD       N/A     18   3  53 W5        30.40S WCI  11
BUFFALO        SUNNY     20   0  40 MISG      30.40F
HUTCHINSON     MOSUNNY   18   4  53 W7        30.41S WCI   9
$$
MNZ037-044-045-052-053-012100-
   East Central Minnesota

CITY           SKY/WX    TMP DP  RH WIND       PRES   REMARKS
PRINCETON      SUNNY     18  -9  29 CALM      30.38F
MORA           SUNNY     19  -8  30 CALM      30.39S
CAMBRIDGE      SUNNY     19   0  42 NW6       30.39S WCI  11
RUSH CITY      SUNNY     18  -8  31 NW5       30.39S WCI  11
MOOSE LAKE     SUNNY     19  -8  30 CALM      30.34S
HINCKLEY       CLEAR     21  -8  27 CALM      30.37F
CLOQUET        SUNNY     12 -13  31 NW7       30.30F WCI   2
MCGREGOR       SUNNY     16  -8  35 N5        30.34F WCI   9
$$
MNZ071>073-080-081-089-090-097-098-012100-
   Southwest Minnesota

CITY           SKY/WX    TMP DP  RH WIND       PRES   REMARKS
MONTEVIDEO     SUNNY     16   0  48 CALM      30.40F
GRANITE FALLS  SUNNY     19   7  61 CALM      30.42F
CANBY          SUNNY     18   7  62 E3        30.40F
MARSHALL       SUNNY     26  12  55 CALM      30.40F
REDWOOD FALLS  SUNNY     18   4  54 VRB3      30.41F
OLIVIA         SUNNY     14   5  67 NW3       30.40F
PIPESTONE      SUNNY     18  12  79 CALM      30.34F
WINDOM         MOSUNNY   19  12  73 NW3       30.37S
WORTHINGTON    MOSUNNY   26  16  65 NW5       30.37F WCI  20
JACKSON        MOSUNNY   23  14  68 VRB3      30.37S
TRACY          SUNNY     17   7  65 CALM      30.38F
SLAYTON        SUNNY     19  11  71 CALM      30.37F
$$
MNZ065>067-074>077-082>085-091>093-012100-
   South Central Minnesota

CITY           SKY/WX    TMP DP  RH WIND       PRES   REMARKS
MANKATO        SUNNY     25  10  53 VRB3      30.40S
NEW ULM        SUNNY     19   5  53 NW3       30.41S
ST JAMES       SUNNY     21  12  68 N5        30.39F WCI  15
FAIRMONT       SUNNY     26  14  60 NW8       30.39S WCI  18
GLENCOE        SUNNY     16   3  55 W7        30.40S WCI   7
FARIBAULT      SUNNY     19   7  58 CALM      30.37F
OWATONNA       SUNNY     19   7  58 NW6       30.36F WCI  11
WASECA         SUNNY     21   7  53 NW5       30.39F WCI  15
ALBERT LEA     SUNNY     19   9  63 N5        30.36S WCI  13
$$
MNZ078>079-086>088-094>096-012100-
   Southeast Minnesota

CITY           SKY/WX    TMP DP  RH WIND       PRES   REMARKS
ROCHESTER      SUNNY     20   7  57 NW8       30.34R WCI  10
RED WING       SUNNY     21  -2  35 NW6       30.38S WCI  14
STANTON        SUNNY     21   4  47 CALM      30.38S
DODGE CENTER   SUNNY     18   3  53 N6        30.35R WCI   9
WINONA         SUNNY     28   9  43 NW7       30.38R WCI  21
AUSTIN         SUNNY     21   7  53 N6        30.35F WCI  14
PRESTON        SUNNY     20   5  53 NW8       30.34S WCI  10
$$
ABBREVIATIONS USED IN REMARKS
   TC - TEMPERATURES IN CELSIUS
  WCI - WIND CHILL INDEX
   HX - HEAT INDEX
  VSB - VISIBILITY
$$



USA.gov is the U.S. government's official web portal to all federal, state and local government web resources and services.